| time (UTC) | temp F | wind direction | speed MPH | gust MPH | rain 1hr in | rain 24hr in | rain mn in | humidity % | barometer mb |
| 20260831080053 | 60 | 246 | 7.0 | 14.0 | 0.14 | 0.17 | 0.14 | 91 | 1018.5 |
| 20260831074524 | 61 | 248 | 8.0 | 12.0 | 0.11 | 0.13 | 0.11 | 89 | 1018.4 |
| 20260831073052 | 61 | 223 | 8.0 | 12.0 | 0.01 | 0.03 | 0.01 | 89 | 1018.1 |
| 20260831071520 | 61 | 185 | 4.0 | 10.0 | 0.01 | 0.03 | 0.01 | 90 | 1017.8 |
| 20260831070024 | 62 | 217 | 5.0 | 11.0 | 0.00 | 0.02 | 0.00 | 89 | 1017.9 |
| 20260831064517 | 61 | 208 | 7.0 | 13.0 | 0.00 | 0.02 | 0.00 | 88 | 1017.8 |
| 20260831063023 | 61 | 167 | 4.0 | 9.0 | 0.00 | 0.02 | 0.00 | 89 | 1017.6 |
| 20260831061514 | 61 | 153 | 7.0 | 15.0 | 0.00 | 0.02 | 0.00 | 88 | 1017.5 |
| 20260831060017 | 61 | 234 | 6.0 | 11.0 | 0.00 | 0.02 | 0.00 | 87 | 1017.4 |
| 20260831054515 | 61 | 165 | 5.0 | 14.0 | 0.00 | 0.02 | 0.00 | 88 | 1017.2 |
| 20260831053009 | 60 | 160 | 2.0 | 11.0 | 0.00 | 0.02 | 0.00 | 89 | 1017.1 |
| 20260831051505 | 60 | 225 | 5.0 | 11.0 | 0.00 | 0.02 | 0.00 | 90 | 1017.0 |
| 20260831050004 | 59 | 203 | 4.0 | 9.0 | 0.00 | 0.02 | 0.00 | 90 | 1016.9 |
| 20260831044501 | 60 | 247 | 2.0 | 10.0 | 0.00 | 0.02 | 0.00 | 89 | 1017.0 |
| 20260831043102 | 60 | 265 | 4.0 | 10.0 | 0.00 | 0.02 | 0.00 | 88 | 1016.8 |
| 20260831041609 | 60 | 201 | 4.0 | 11.0 | 0.00 | 0.02 | 0.00 | 88 | 1016.9 |
| 20260831040059 | 60 | 201 | 6.0 | 14.0 | 0.00 | 0.02 | 0.00 | 88 | 1016.9 |
| 20260831034604 | 60 | 254 | 5.0 | 12.0 | 0.00 | 0.02 | 0.00 | 88 | 1016.9 |
| 20260831033056 | 60 | 248 | 4.0 | 12.0 | 0.00 | 0.02 | 0.00 | 87 | 1016.9 |
| 20260831031555 | 61 | 254 | 2.0 | 13.0 | 0.00 | 0.02 | 0.00 | 86 | 1016.8 |
| 20260831030059 | 61 | 187 | 5.0 | 11.0 | 0.00 | 0.02 | 0.00 | 86 | 1016.7 |
| 20260831024552 | 61 | 221 | 5.0 | 14.0 | 0.00 | 0.02 | 0.00 | 86 | 1016.6 |
| 20260831023051 | 61 | 200 | 7.0 | 20.0 | 0.00 | 0.02 | 0.00 | 87 | 1016.6 |
| 20260831021551 | 61 | 186 | 6.0 | 11.0 | 0.00 | 0.02 | 0.00 | 87 | 1016.5 |
| 20260831020050 | 61 | 196 | 6.0 | 12.0 | 0.00 | 0.02 | 0.00 | 87 | 1016.5 |
| 20260831014547 | 61 | 200 | 3.0 | 13.0 | 0.00 | 0.02 | 0.00 | 87 | 1016.5 |
| 20260831013053 | 61 | 178 | 5.0 | 12.0 | 0.00 | 0.02 | 0.00 | 87 | 1016.4 |
| 20260831011548 | 61 | 208 | 7.0 | 12.0 | 0.00 | 0.02 | 0.00 | 87 | 1016.5 |
| 20260831004542 | 62 | 178 | 4.0 | 13.0 | 0.00 | 0.02 | 0.00 | 86 | 1016.4 |
| 20260831003045 | 61 | 173 | 2.0 | 12.0 | 0.00 | 0.02 | 0.00 | 86 | 1016.4 |
| 20260831001541 | 61 | 191 | 4.0 | 13.0 | 0.00 | 0.02 | 0.00 | 86 | 1016.3 |
| 20260831000039 | 61 | 175 | 6.0 | 11.0 | 0.00 | 0.02 | 0.00 | 87 | 1016.4 |
| 20260830234537 | 61 | 151 | 4.0 | 11.0 | 0.00 | 0.02 | 0.00 | 87 | 1016.4 |
| 20260830233036 | 61 | 186 | 6.0 | 11.0 | 0.00 | 0.02 | 0.00 | 88 | 1016.5 |
| 20260830231537 | 61 | 141 | 4.0 | 13.0 | 0.00 | 0.02 | 0.00 | 88 | 1016.4 |
| 20260830230034 | 61 | 168 | 6.0 | 11.0 | 0.00 | 0.02 | 0.00 | 88 | 1016.2 |
| 20260830224530 | 61 | 221 | 3.0 | 10.0 | 0.00 | 0.02 | 0.00 | 88 | 1016.3 |
| 20260830223028 | 61 | 192 | 5.0 | 15.0 | 0.00 | 0.02 | 0.00 | 89 | 1016.3 |
| 20260830221526 | 61 | 208 | 5.0 | 10.0 | 0.00 | 0.02 | 0.00 | 89 | 1016.3 |
| 20260830220031 | 61 | 158 | 4.0 | 12.0 | 0.00 | 0.02 | 0.00 | 89 | 1016.2 |
| 20260830214526 | 61 | 175 | 6.0 | 14.0 | 0.00 | 0.02 | 0.02 | 88 | 1016.0 |
| 20260830213022 | 61 | 200 | 3.0 | 11.0 | 0.00 | 0.02 | 0.02 | 88 | 1016.0 |
| 20260830211522 | 61 | 210 | 4.0 | 12.0 | 0.00 | 0.02 | 0.02 | 88 | 1016.0 |
| 20260830210022 | 61 | 146 | 4.0 | 11.0 | 0.00 | 0.02 | 0.02 | 87 | 1015.8 |
| 20260830204530 | 61 | 193 | 5.0 | 11.0 | 0.00 | 0.02 | 0.02 | 87 | 1015.8 |
| 20260830203020 | 61 | 169 | 5.0 | 11.0 | 0.00 | 0.02 | 0.02 | 87 | 1015.6 |
| 20260830201520 | 61 | 205 | 4.0 | 12.0 | 0.00 | 0.02 | 0.02 | 87 | 1015.7 |
| 20260830200019 | 62 | 185 | 4.0 | 11.0 | 0.00 | 0.02 | 0.02 | 86 | 1015.4 |
| 20260830194518 | 62 | 158 | 4.0 | 12.0 | 0.00 | 0.02 | 0.02 | 85 | 1015.4 |
| 20260830193017 | 63 | 178 | 4.0 | 9.0 | 0.00 | 0.02 | 0.02 | 85 | 1015.4 |
| 20260830191517 | 63 | 148 | 5.0 | 14.0 | 0.00 | 0.02 | 0.02 | 84 | 1015.1 |
| 20260830190017 | 63 | 196 | 5.0 | 10.0 | 0.00 | 0.02 | 0.02 | 83 | 1015.0 |
| 20260830184516 | 64 | 142 | 5.0 | 13.0 | 0.00 | 0.02 | 0.02 | 83 | 1014.8 |
| 20260830183019 | 64 | 207 | 7.0 | 13.0 | 0.00 | 0.02 | 0.02 | 82 | 1014.6 |
| 20260830181516 | 64 | 242 | 4.0 | 10.0 | 0.00 | 0.02 | 0.02 | 83 | 1014.6 |
| 20260830180015 | 65 | 154 | 7.0 | 14.0 | 0.00 | 0.02 | 0.02 | 81 | 1014.6 |
| 20260830174523 | 65 | 169 | 6.0 | 12.0 | 0.00 | 0.02 | 0.02 | 80 | 1014.7 |
| 20260830173014 | 65 | 178 | 7.0 | 13.0 | 0.00 | 0.02 | 0.02 | 80 | 1014.7 |
| 20260830171514 | 66 | 156 | 7.0 | 13.0 | 0.00 | 0.02 | 0.02 | 83 | 1014.6 |
| 20260830170014 | 66 | 161 | 7.0 | 15.0 | 0.00 | 0.02 | 0.02 | 84 | 1014.4 |
| 20260830164516 | 66 | 171 | 8.0 | 15.0 | 0.02 | 0.02 | 0.02 | 83 | 1014.3 |
| 20260830163018 | 66 | 175 | 6.0 | 11.0 | 0.02 | 0.02 | 0.02 | 86 | 1014.4 |
| 20260830161512 | 66 | 165 | 6.0 | 11.0 | 0.02 | 0.02 | 0.02 | 87 | 1014.2 |
| 20260830160013 | 66 | 205 | 3.0 | 9.0 | 0.02 | 0.02 | 0.02 | 85 | 1014.5 |
| 20260830154513 | 67 | 150 | 8.0 | 14.0 | 0.01 | 0.01 | 0.01 | 81 | 1014.6 |
| 20260830153027 | 69 | 217 | 4.0 | 13.0 | 0.00 | 0.00 | 0.00 | 76 | 1014.6 |
| 20260830151528 | 69 | 165 | 7.0 | 14.0 | 0.00 | 0.00 | 0.00 | 74 | 1014.5 |
| 20260830150010 | 70 | 203 | 8.0 | 14.0 | 0.00 | 0.00 | 0.00 | 70 | 1014.5 |
| 20260830144509 | 71 | 248 | 7.0 | 14.0 | 0.00 | 0.01 | 0.00 | 64 | 1014.5 |
| 20260830143009 | 72 | 214 | 5.0 | 15.0 | 0.00 | 0.01 | 0.00 | 62 | 1014.7 |
| 20260830141509 | 72 | 151 | 6.0 | 13.0 | 0.00 | 0.01 | 0.00 | 61 | 1014.5 |
| 20260830140008 | 73 | 137 | 6.0 | 14.0 | 0.00 | 0.01 | 0.00 | 60 | 1014.4 |
| 20260830134514 | 74 | 153 | 8.0 | 14.0 | 0.00 | 0.03 | 0.00 | 59 | 1014.6 |
| 20260830133006 | 74 | 215 | 5.0 | 11.0 | 0.00 | 0.03 | 0.00 | 59 | 1014.7 |
| 20260830131504 | 73 | 294 | 5.0 | 10.0 | 0.00 | 0.03 | 0.00 | 59 | 1014.7 |
| 20260830130002 | 73 | 196 | 5.0 | 11.0 | 0.00 | 0.03 | 0.00 | 60 | 1015.0 |
| 20260830124502 | 72 | 229 | 2.0 | 13.0 | 0.00 | 0.03 | 0.00 | 60 | 1015.1 |
| 20260830123002 | 73 | 309 | 6.0 | 18.0 | 0.00 | 0.03 | 0.00 | 56 | 1015.2 |
| 20260830121601 | 74 | 177 | 6.0 | 14.0 | 0.00 | 0.03 | 0.00 | 57 | 1015.1 |
| 20260830120106 | 73 | 252 | 6.0 | 15.0 | 0.00 | 0.03 | 0.00 | 57 | 1015.5 |
| 20260830114555 | 73 | 215 | 6.0 | 15.0 | 0.00 | 0.03 | 0.00 | 57 | 1015.5 |
| 20260830113053 | 74 | 171 | 7.0 | 22.0 | 0.00 | 0.03 | 0.00 | 55 | 1015.6 |
| 20260830111549 | 73 | 198 | 7.0 | 18.0 | 0.00 | 0.03 | 0.00 | 56 | 1015.8 |
| 20260830110048 | 72 | 259 | 7.0 | 19.0 | 0.00 | 0.03 | 0.00 | 60 | 1015.8 |
| 20260830104546 | 72 | 198 | 7.0 | 14.0 | 0.00 | 0.03 | 0.00 | 60 | 1016.0 |
| 20260830103043 | 69 | 194 | 5.0 | 14.0 | 0.00 | 0.03 | 0.00 | 66 | 1015.8 |
| 20260830101554 | 70 | 237 | 9.0 | 16.0 | 0.00 | 0.03 | 0.00 | 65 | 1016.1 |
| 20260830100039 | 70 | 200 | 8.0 | 15.0 | 0.00 | 0.03 | 0.00 | 67 | 1016.2 |
| 20260830094535 | 69 | 207 | 6.0 | 13.0 | 0.00 | 0.03 | 0.00 | 71 | 1016.4 |
| 20260830093031 | 68 | 194 | 7.0 | 14.0 | 0.00 | 0.03 | 0.00 | 72 | 1016.3 |
| 20260830091528 | 67 | 229 | 5.0 | 11.0 | 0.00 | 0.03 | 0.00 | 78 | 1016.4 |
| 20260830090009 | 67 | 171 | 5.0 | 11.0 | 0.00 | 0.03 | 0.00 | 78 | 1016.4 |
| 20260830084505 | 65 | 246 | 5.0 | 12.0 | 0.00 | 0.03 | 0.00 | 80 | 1016.5 |
| 20260830083005 | 66 | 248 | 5.0 | 11.0 | 0.00 | 0.03 | 0.00 | 80 | 1016.4 |
| 20260830081504 | 66 | 201 | 5.0 | 10.0 | 0.00 | 0.03 | 0.00 | 80 | 1016.4 |